Theta_e
323 330 335 346 342 339 336 335 334 333 332 331 332 332 331 331 331 332 334 334 335 338 339 340 341 342 343 344 349 351 350 349
309 324 333 346 341 339 337 335 334 332 332 332 332 331 331 331 331 332 333 334 334 338 339 340 341 342 343 345 347 350 350 350
315 313 315 336 343 339 335 335 336 336 333 332 332 331 330 330 331 331 332 334 334 338 339 339 341 344 345 346 348 348 349 349
309 310 311 311 318 326 330 334 332 333 331 330 330 331 330 330 330 330 332 334 335 337 339 339 341 343 345 345 348 347 348 346
307 309 309 311 316 317 321 329 326 327 326 327 328 328 328 328 329 330 331 333 335 337 339 339 341 343 345 346 348 345 348 346
310 309 310 316 317 317 319 320 321 324 324 323 322 324 325 319 320 325 330 333 336 337 339 340 340 342 344 344 345 346 346 338
309 312 316 317 316 317 320 314 315 321 320 319 319 317 315 317 319 326 329 333 335 337 338 340 340 341 341 336 337 345 337 336
309 315 317 315 317 315 314 314 316 319 320 320 318 320 317 320 319 321 323 325 326 333 331 334 333 333 334 332 335 335 336 335
312 314 317 315 317 315 315 314 315 318 321 319 315 315 314 317 319 319 321 323 325 327 327 329 331 332 332 334 334 334 336 336
312 314 315 315 315 316 315 315 314 319 321 317 316 316 317 317 316 318 321 323 324 326 328 329 334 334 333 333 335 334 336 335
314 313 314 316 316 316 315 314 316 317 317 317 315 317 319 318 316 319 319 321 323 324 327 331 334 332 332 333 332 334 336 336
315 315 315 316 317 316 315 317 317 317 317 317 317 319 321 320 319 320 320 322 322 327 330 332 331 330 330 331 331 333 334 334
313 315 313 320 316 316 316 317 318 318 317 317 318 319 322 323 324 321 321 323 329 329 330 330 330 328 328 328 329 331 332 332
315 315 313 314 318 317 316 317 317 318 318 319 320 320 322 324 328 326 325 328 330 329 329 329 328 328 327 327 328 330 330 329
317 316 316 314 317 317 317 317 317 317 319 321 322 323 324 326 328 328 325 328 328 327 326 327 326 328 329 327 327 328 329 328
318 314 315 312 314 316 314 313 315 315 317 319 322 324 325 326 329 327 326 328 328 326 326 327 327 326 326 327 325 324 326 327
316 316 315 314 312 314 315 315 316 316 318 318 320 322 325 327 328 327 327 327 328 326 326 326 326 325 325 326 322 322 317 321
314 312 316 316 311 313 315 316 316 317 319 318 319 322 324 328 328 327 326 328 328 328 326 325 325 324 321 324 323 318 316 314
315 316 316 316 315 314 311 313 313 313 314 317 319 323 326 329 328 327 327 327 327 328 327 326 327 324 324 319 320 323 323 321
Wind_Speed
8 11 13 15 13 11 11 10 9 10 11 11 11 11 10 9 9 10 13 14 13 16 14 14 13 11 10 8 8 11 12 14
5 5 7 13 12 10 9 10 11 13 14 13 12 12 12 12 12 13 13 16 15 16 16 15 14 13 11 9 10 11 11 13
7 4 4 2 9 9 10 12 14 14 15 13 15 14 13 13 13 16 15 16 16 16 17 16 15 13 10 8 7 12 13 12
6 7 3 2 5 7 8 11 7 9 12 9 11 14 15 14 15 16 16 15 17 17 16 16 15 13 11 8 8 13 14 15
5 2 3 4 5 6 6 7 7 7 6 10 14 15 15 14 15 16 16 14 14 18 17 18 16 14 12 9 8 17 16 17
4 3 2 5 5 4 2 4 6 7 6 7 8 10 9 3 4 9 11 12 14 17 17 16 14 14 12 10 10 19 18 5
6 6 5 4 4 4 3 3 3 3 3 3 3 4 4 5 5 6 10 13 14 15 15 14 14 14 10 3 6 18 6 8
5 4 3 2 2 3 4 3 2 2 2 2 3 2 3 3 3 3 3 3 3 10 3 7 6 3 6 5 6 6 10 8
6 3 1 2 2 3 2 2 3 3 2 2 3 4 1 1 2 3 3 4 3 2 4 4 3 5 7 9 9 10 9 8
5 5 5 3 3 3 3 3 3 3 2 3 3 4 2 2 1 2 3 4 4 3 4 4 7 7 9 10 8 10 11 11
4 5 3 4 4 4 2 3 4 3 3 3 3 3 3 2 3 3 3 4 4 4 3 4 8 8 9 10 10 11 11 12
2 3 4 2 4 3 3 4 4 4 2 2 2 4 5 4 4 4 3 3 2 4 9 8 10 9 9 9 12 11 11 12
1 3 4 3 3 3 4 4 4 4 3 3 2 3 4 5 4 1 2 4 5 9 6 9 10 9 10 10 9 10 11 10
0 1 3 5 3 2 3 3 4 5 3 2 1 2 3 2 5 5 5 8 11 6 6 9 9 10 10 10 9 9 10 9
1 2 0 4 2 1 2 3 3 3 3 3 3 3 4 5 10 3 5 8 8 6 6 8 11 8 10 11 11 9 9 7
1 3 4 4 3 3 2 2 3 3 3 3 4 5 5 11 7 3 5 7 5 7 8 9 9 12 9 11 9 10 10 9
1 0 3 3 2 2 1 2 1 1 2 2 3 5 6 10 7 5 9 7 8 8 9 8 9 7 8 5 10 10 9 7
2 2 2 2 2 1 4 3 2 2 3 4 4 4 5 7 4 3 5 7 7 6 6 8 7 9 6 5 4 4 8 5
5 2 4 3 2 1 3 4 4 2 2 2 2 4 6 8 5 2 3 6 6 5 7 4 4 4 9 5 2 5 9 6
Wind_Direction
172 178 193 197 206 216 219 227 240 246 238 233 231 236 242 256 268 280 279 251 258 245 231 234 231 230 234 249 241 207 183 176
102 181 216 201 211 222 238 250 254 255 247 238 237 240 249 258 266 274 277 254 246 248 233 228 222 225 224 241 236 194 178 175
123 107 74 116 214 231 248 253 255 253 247 245 251 246 256 260 272 275 269 251 243 246 229 224 220 217 218 222 236 189 169 160
67 102 146 68 356 332 307 290 303 313 243 262 263 250 253 257 265 265 263 249 246 238 220 220 215 215 212 220 214 178 163 141
66 69 40 43 49 38 25 46 13 353 319 286 274 263 264 254 251 260 257 248 252 223 209 213 213 210 213 204 198 164 155 141
3 344 60 58 37 360 101 19 16 349 340 308 288 278 256 274 271 260 253 243 242 221 209 208 209 212 207 200 190 161 147 143
338 350 63 52 28 10 31 20 346 322 287 287 275 265 262 250 241 239 238 247 234 215 207 208 212 212 199 168 171 157 137 144
306 19 34 45 24 23 22 4 321 302 286 298 300 270 252 247 235 252 269 264 247 211 189 200 199 181 131 151 140 134 147 137
2 17 352 2 354 22 25 336 299 284 286 288 282 287 311 257 238 251 244 236 219 191 185 173 147 127 126 133 130 130 124 126
25 350 349 326 16 354 1 309 284 284 304 300 306 303 299 355 295 266 264 224 211 173 165 146 134 127 123 122 108 114 124 132
20 352 343 21 33 20 348 314 315 316 300 283 287 290 308 297 266 295 255 210 212 159 149 126 134 117 116 117 98 100 118 124
349 314 1 87 51 32 345 324 329 312 308 281 298 299 283 261 263 283 246 194 156 143 106 118 110 117 108 99 94 100 111 123
18 8 343 22 59 19 8 342 344 340 14 11 342 286 271 270 248 5 140 112 64 113 123 120 126 117 106 113 105 103 106 109
258 351 4 28 75 33 9 341 352 352 14 342 360 332 290 317 51 69 86 103 108 123 122 124 117 123 123 116 111 109 107 98
255 346 62 42 48 311 342 341 355 358 351 6 13 12 30 73 60 48 83 105 109 112 110 125 116 125 121 120 116 113 114 108
324 16 46 100 358 25 348 331 344 339 325 352 19 18 45 85 122 98 105 94 99 104 120 119 116 124 116 124 119 105 106 109
92 261 45 93 25 326 300 275 223 308 313 307 359 43 35 100 99 103 119 117 104 110 107 108 122 119 123 139 133 121 128 117
131 104 109 128 176 26 6 35 33 14 354 5 23 31 28 88 101 48 91 116 112 109 95 112 116 123 101 105 103 155 132 134
172 185 96 99 160 244 57 64 62 76 74 337 60 66 46 66 71 77 95 128 110 126 111 106 123 129 135 160 67 25 81 113